When you browse on this site, cookies collect data to enhance your experience and personalize the content and advertising you see.
Visit our Privacy Policy to learn more. By continuing to use the site, you agree to this use of cookies and data.
  • In Hungary
  • List of Countries
  • For 7 days
  • Water Temperature
  • Satellite Maps
  • Weather Map
  • News
  • Weather Widgets
  • user-avatar
    Login

    Hourly Weather Rankweil

    Today, 19 March, Tuesday

    Time Temperature Precipitation Wind Pressure Humidity
    00:00 +1°C° 0 mm 1 mps 724 mmHg 90%
    01:00 +2°C° 0 mm 1 mps 724 mmHg 89%
    02:00 +2°C° 0 mm 1 mps 724 mmHg 89%
    03:00 +1°C° 0 mm 1 mps 724 mmHg 89%
    04:00 0°C° 0 mm 0 mps 724 mmHg 90%
    05:00 0°C° 0 mm 1 mps 724 mmHg 89%
    06:00 0°C° 0 mm 1 mps 725 mmHg 88%
    07:00 +2°C° 0 mm 1 mps 725 mmHg 87%
    08:00 +3°C° 0 mm 1 mps 725 mmHg 81%
    09:00 +5°C° 0 mm 1 mps 725 mmHg 75%
    10:00 +6°C° 0 mm 1 mps 725 mmHg 70%
    11:00 +7°C° 0 mm 1 mps 724 mmHg 68%
    12:00 +7°C° 0 mm 1 mps 724 mmHg 66%
    13:00 +7°C° 0 mm 2 mps 724 mmHg 64%
    14:00 +7°C° 0 mm 2 mps 724 mmHg 65%
    15:00 +7°C° 0 mm 2 mps 724 mmHg 66%
    16:00 +7°C° 0 mm 2 mps 725 mmHg 67%
    17:00 +6°C° 0.1 mm 1 mps 725 mmHg 73%
    18:00 +5°C° 0.1 mm 1 mps 726 mmHg 78%
    19:00 +4°C° 0.1 mm 1 mps 726 mmHg 84%
    20:00 +4°C° 0 mm 1 mps 727 mmHg 86%
    21:00 +3°C° 0 mm 1 mps 728 mmHg 87%
    22:00 +3°C° 0 mm 1 mps 728 mmHg 89%
    23:00 +2°C° 0 mm 1 mps 729 mmHg 89%

    Tomorrow, 20 March, Wednesday

    Time Temperature Precipitation Wind Pressure Humidity
    00:00 +2°C° 0 mm 1 mps 729 mmHg 88%
    01:00 +1°C° 0 mm 1 mps 729 mmHg 88%
    02:00 +1°C° 0 mm 1 mps 729 mmHg 87%
    03:00 0°C° 0 mm 1 mps 729 mmHg 86%
    04:00 0°C° 0 mm 1 mps 729 mmHg 85%
    05:00 0°C° 0 mm 1 mps 729 mmHg 82%
    06:00 0°C° 0 mm 1 mps 730 mmHg 80%
    07:00 0°C° 0 mm 1 mps 730 mmHg 78%
    08:00 +2°C° 0 mm 1 mps 730 mmHg 71%
    09:00 +5°C° 0 mm 1 mps 730 mmHg 64%
    10:00 +7°C° 0 mm 1 mps 730 mmHg 57%
    11:00 +8°C° 0 mm 1 mps 730 mmHg 56%
    12:00 +9°C° 0 mm 1 mps 730 mmHg 56%
    13:00 +9°C° 0 mm 2 mps 729 mmHg 55%
    14:00 +9°C° 0 mm 2 mps 729 mmHg 57%
    15:00 +9°C° 0 mm 2 mps 729 mmHg 60%
    16:00 +9°C° 0 mm 2 mps 729 mmHg 62%
    17:00 +7°C° 0 mm 2 mps 729 mmHg 69%
    18:00 +6°C° 0 mm 1 mps 729 mmHg 76%
    19:00 +4°C° 0 mm 1 mps 730 mmHg 82%
    20:00 +3°C° 0 mm 1 mps 730 mmHg 82%
    21:00 +3°C° 0 mm 1 mps 730 mmHg 83%
    22:00 +2°C° 0 mm 1 mps 731 mmHg 83%
    23:00 +2°C° 0 mm 1 mps 731 mmHg 80%

    Day after tomorrow, 21 March, Thursday

    Time Temperature Precipitation Wind Pressure Humidity
    00:00 +2°C° 0 mm 1 mps 731 mmHg 77%
    01:00 +1°C° 0 mm 2 mps 731 mmHg 74%
    02:00 +1°C° 0 mm 2 mps 730 mmHg 71%
    03:00 -1°C° 0 mm 2 mps 730 mmHg 68%
    04:00 +1°C° 0 mm 1 mps 730 mmHg 65%
    05:00 +2°C° 0 mm 1 mps 730 mmHg 63%
    06:00 +2°C° 0 mm 1 mps 730 mmHg 60%
    07:00 +2°C° 0 mm 1 mps 730 mmHg 58%
    08:00 +5°C° 0 mm 1 mps 730 mmHg 56%
    09:00 +8°C° 0 mm 1 mps 730 mmHg 54%
    10:00 +11°C° 0 mm 1 mps 730 mmHg 51%
    11:00 +12°C° 0 mm 1 mps 729 mmHg 51%
    12:00 +13°C° 0 mm 1 mps 729 mmHg 52%
    13:00 +14°C° 0 mm 1 mps 729 mmHg 52%
    14:00 +14°C° 0 mm 1 mps 728 mmHg 55%
    15:00 +14°C° 0 mm 1 mps 728 mmHg 59%
    16:00 +14°C° 0 mm 1 mps 728 mmHg 62%
    17:00 +11°C° 0 mm 1 mps 728 mmHg 69%
    18:00 +9°C° 0 mm 1 mps 728 mmHg 76%
    19:00 +7°C° 0 mm 1 mps 728 mmHg 83%
    20:00 +7°C° 0 mm 1 mps 728 mmHg 82%
    21:00 +6°C° 0 mm 1 mps 729 mmHg 80%
    22:00 +5°C° 0 mm 2 mps 729 mmHg 79%
    23:00 +5°C° 0 mm 2 mps 729 mmHg 76%

    22 March, Friday

    Time Temperature Precipitation Wind Pressure Humidity
    00:00 +4°C° 0 mm 2 mps 729 mmHg 73%
    01:00 +4°C° 0 mm 2 mps 729 mmHg 71%
    02:00 +4°C° 0 mm 2 mps 729 mmHg 69%
    03:00 +4°C° 0 mm 2 mps 728 mmHg 67%
    04:00 +4°C° 0 mm 2 mps 728 mmHg 66%
    05:00 +4°C° 0 mm 2 mps 728 mmHg 65%
    06:00 +4°C° 0 mm 2 mps 728 mmHg 63%
    07:00 +5°C° 0 mm 1 mps 728 mmHg 62%
    08:00 +8°C° 0 mm 1 mps 728 mmHg 60%
    09:00 +11°C° 0 mm 1 mps 728 mmHg 58%
    10:00 +13°C° 0 mm 0 mps 728 mmHg 56%
    11:00 +14°C° 0 mm 0 mps 728 mmHg 55%
    12:00 +16°C° 0 mm 1 mps 727 mmHg 55%
    13:00 +18°C° 0 mm 1 mps 727 mmHg 54%
    14:00 +16°C° 0 mm 1 mps 727 mmHg 57%
    15:00 +16°C° 0 mm 1 mps 726 mmHg 59%
    16:00 +16°C° 0 mm 1 mps 726 mmHg 62%
    17:00 +14°C° 0 mm 1 mps 726 mmHg 68%
    18:00 +11°C° 0 mm 1 mps 726 mmHg 74%
    19:00 +8°C° 0 mm 0 mps 726 mmHg 80%
    20:00 +9°C° 0 mm 1 mps 726 mmHg 79%
    21:00 +8°C° 0 mm 1 mps 727 mmHg 78%
    22:00 +7°C° 0 mm 2 mps 727 mmHg 77%
    23:00 +7°C° 0 mm 2 mps 727 mmHg 75%

    23 March, Saturday

    Time Temperature Precipitation Wind Pressure Humidity
    00:00 +7°C° 0 mm 2 mps 727 mmHg 73%
    01:00 +6°C° 0 mm 2 mps 727 mmHg 72%
    02:00 +6°C° 0 mm 2 mps 727 mmHg 70%
    03:00 +6°C° 0 mm 2 mps 727 mmHg 69%
    04:00 +6°C° 0 mm 2 mps 727 mmHg 68%
    05:00 +6°C° 0 mm 2 mps 727 mmHg 67%
    06:00 +6°C° 0 mm 2 mps 727 mmHg 66%
    07:00 +6°C° 0 mm 2 mps 727 mmHg 65%
    08:00 +10°C° 0 mm 1 mps 727 mmHg 62%
    09:00 +12°C° 0 mm 1 mps 726 mmHg 60%
    10:00 +14°C° 0 mm 0 mps 726 mmHg 57%
    11:00 +15°C° 0 mm 0 mps 726 mmHg 57%
    12:00 +18°C° 0 mm 1 mps 726 mmHg 57%
    13:00 +18°C° 0 mm 1 mps 726 mmHg 56%
    14:00 +18°C° 0 mm 1 mps 725 mmHg 58%
    15:00 +18°C° 0 mm 1 mps 725 mmHg 60%
    16:00 +16°C° 0 mm 1 mps 724 mmHg 62%
    17:00 +14°C° 0 mm 1 mps 724 mmHg 69%
    18:00 +12°C° 0 mm 1 mps 724 mmHg 75%
    19:00 +9°C° 0 mm 0 mps 724 mmHg 82%
    20:00 +10°C° 0 mm 1 mps 725 mmHg 82%
    21:00 +9°C° 0 mm 1 mps 725 mmHg 82%
    22:00 +8°C° 0 mm 2 mps 725 mmHg 82%
    23:00 +8°C° 0 mm 2 mps 725 mmHg 80%

    24 March, Sunday

    Time Temperature Precipitation Wind Pressure Humidity
    00:00 +7°C° 0 mm 2 mps 725 mmHg 78%
    01:00 +7°C° 0 mm 2 mps 725 mmHg 77%
    02:00 +7°C° 0 mm 2 mps 725 mmHg 76%
    03:00 +7°C° 0 mm 2 mps 724 mmHg 75%
    04:00 +7°C° 0 mm 2 mps 724 mmHg 74%
    05:00 +7°C° 0 mm 2 mps 724 mmHg 73%
    06:00 +7°C° 0 mm 2 mps 725 mmHg 72%
    07:00 +8°C° 0 mm 1 mps 725 mmHg 71%
    08:00 +10°C° 0 mm 1 mps 725 mmHg 69%
    09:00 +12°C° 0 mm 1 mps 725 mmHg 67%
    10:00 +14°C° 0 mm 1 mps 725 mmHg 65%
    11:00 +15°C° 0 mm 1 mps 724 mmHg 64%
    12:00 +16°C° 0 mm 1 mps 724 mmHg 64%
    13:00 +16°C° 0 mm 1 mps 724 mmHg 64%
    14:00 +16°C° 0 mm 1 mps 724 mmHg 64%
    15:00 +16°C° 0 mm 1 mps 723 mmHg 64%
    16:00 +15°C° 0 mm 1 mps 723 mmHg 64%
    17:00 +14°C° 0 mm 1 mps 723 mmHg 69%
    18:00 +12°C° 0 mm 1 mps 723 mmHg 74%
    19:00 +11°C° 0 mm 1 mps 724 mmHg 79%
    20:00 +10°C° 0 mm 1 mps 724 mmHg 80%
    21:00 +9°C° 0 mm 0 mps 725 mmHg 82%
    22:00 +8°C° 0 mm 0 mps 725 mmHg 83%
    23:00 +8°C° 0 mm 0 mps 725 mmHg 86%
    Show more